TimePST,TemperatureF,Dew PointF,Humidity,Sea Level PressureIn,VisibilityMPH,Wind Direction,Wind SpeedMPH,Gust SpeedMPH,PrecipitationIn,Events,Conditions,WindDirDegrees,DateUTC
12:51 AM,44.1,26.1,49,30.16,10.0,SE,4.6,-,N/A,,Clear,140,2013-12-27 08:51:00
1:51 AM,44.1,24.1,45,30.17,10.0,Calm,Calm,-,N/A,,Clear,0,2013-12-27 09:51:00
2:51 AM,42.1,25.0,51,30.17,10.0,SSE,3.5,-,N/A,,Clear,150,2013-12-27 10:51:00
3:51 AM,43.0,24.1,47,30.17,10.0,ESE,4.6,-,N/A,,Clear,120,2013-12-27 11:51:00
4:51 AM,41.0,23.0,49,30.16,10.0,Calm,Calm,-,N/A,,Clear,0,2013-12-27 12:51:00
5:51 AM,39.0,21.0,49,30.17,10.0,SE,3.5,-,N/A,,Clear,130,2013-12-27 13:51:00
6:51 AM,39.9,21.0,47,30.18,10.0,ESE,4.6,-,N/A,,Clear,120,2013-12-27 14:51:00
7:51 AM,44.1,21.9,42,30.18,10.0,ESE,3.5,-,N/A,,Clear,120,2013-12-27 15:51:00
8:51 AM,59.0,17.1,20,30.19,10.0,Calm,Calm,-,N/A,,Clear,0,2013-12-27 16:51:00
9:51 AM,66.9,16.0,14,30.19,10.0,ENE,3.5,-,N/A,,Scattered Clouds,70,2013-12-27 17:51:00
10:51 AM,73.9,14.0,10,30.18,10.0,Calm,Calm,-,N/A,,Scattered Clouds,0,2013-12-27 18:51:00
11:51 AM,80.1,14.0,8,30.14,10.0,Calm,Calm,-,N/A,,Clear,0,2013-12-27 19:51:00
12:51 PM,82.0,6.1,6,30.12,10.0,West,4.6,-,N/A,,Clear,280,2013-12-27 20:51:00
1:51 PM,82.0,10.0,7,30.09,10.0,NW,6.9,-,N/A,,Clear,320,2013-12-27 21:51:00
2:51 PM,80.1,27.0,14,30.08,10.0,NNW,6.9,-,N/A,,Mostly Cloudy,330,2013-12-27 22:51:00
3:51 PM,68.0,28.0,22,30.09,10.0,West,4.6,-,N/A,,Mostly Cloudy,270,2013-12-27 23:51:00
4:51 PM,60.1,37.9,44,30.11,9.0,Calm,Calm,-,N/A,,Mostly Cloudy,0,2013-12-28 00:51:00
5:51 PM,60.1,39.9,47,30.11,10.0,Calm,Calm,-,N/A,,Clear,0,2013-12-28 01:51:00
6:51 PM,55.9,37.0,49,30.12,9.0,South,3.5,-,N/A,,Clear,170,2013-12-28 02:51:00
7:51 PM,55.9,36.0,47,30.11,10.0,Calm,Calm,-,N/A,,Clear,0,2013-12-28 03:51:00
8:51 PM,54.0,32.0,43,30.11,10.0,SSE,4.6,-,N/A,,Clear,160,2013-12-28 04:51:00
9:51 PM,54.0,28.9,38,30.10,10.0,Calm,Calm,-,N/A,,Clear,0,2013-12-28 05:51:00
10:51 PM,51.1,30.9,46,30.10,10.0,NE,3.5,-,N/A,,Clear,40,2013-12-28 06:51:00
11:51 PM,50.0,28.9,44,30.08,10.0,Calm,Calm,-,N/A,,Clear,0,2013-12-28 07:51:00